This is the latest recevied weather packets stored in our database for station/object KN6KS. If no packets are shown the sender has not sent any weather packets the latest 10 day(s).
| Time | Temp. | Humidity | Pressure | Rain* | Wind** | Luminosity | Snow |
|---|---|---|---|---|---|---|---|
| 1777854117 | 14.44° C | 64% | 1008.2 hPa | 0 mm | - | 308 W/m² | - |
| 1777853815 | 14.44° C | 64% | 1008.5 hPa | 0 mm | - | 325 W/m² | - |
| 1777853511 | 14.44° C | 63% | 1008.4 hPa | 0 mm | - | 338 W/m² | - |
| 1777853208 | 14.44° C | 64% | 1008.5 hPa | 0 mm | - | 356 W/m² | - |
| 1777852905 | 15° C | 63% | 1008.5 hPa | 0 mm | - | 366 W/m² | - |
| 1777852603 | 15° C | 63% | 1008.3 hPa | 0 mm | - | 379 W/m² | - |
| 1777852300 | 15° C | 65% | 1008.3 hPa | 0 mm | - | 394 W/m² | - |
| 1777851998 | 15° C | 64% | 1008.3 hPa | 0 mm | - | 397 W/m² | - |
| 1777851696 | 15° C | 64% | 1008.3 hPa | 0 mm | - | 430 W/m² | - |
| 1777851392 | 15° C | 65% | 1008.4 hPa | 0 mm | - | 438 W/m² | - |
| 1777851088 | 14.44° C | 66% | 1008.4 hPa | 0 mm | - | 422 W/m² | - |
| 1777850785 | 14.44° C | 66% | 1008.5 hPa | 0 mm | - | 452 W/m² | - |
| 1777850482 | 14.44° C | 67% | 1008.6 hPa | 0 mm | - | 470 W/m² | - |
| 1777850180 | 14.44° C | 67% | 1008.7 hPa | 0 mm | - | 486 W/m² | - |
| 1777849876 | 14.44° C | 67% | 1008.7 hPa | 0 mm | - | 498 W/m² | - |
| 1777849574 | 14.44° C | 67% | 1009.1 hPa | 0 mm | - | 508 W/m² | - |
| 1777849271 | 15° C | 67% | 1009 hPa | 0 mm | - | 511 W/m² | - |
| 1777848969 | 14.44° C | 68% | 1008.7 hPa | 0 mm | - | 510 W/m² | - |
| 1777848668 | 15° C | 67% | 1008.8 hPa | 0 mm | - | 519 W/m² | - |
| 1777848366 | 14.44° C | 68% | 1008.8 hPa | 0 mm | - | 548 W/m² | - |
| 1777848063 | 14.44° C | 68% | 1009.3 hPa | 0 mm | - | 561 W/m² | - |
| 1777847761 | 14.44° C | 69% | 1009.3 hPa | 0 mm | - | 544 W/m² | - |
| 1777847457 | 14.44° C | 68% | 1009.2 hPa | 0 mm | - | 555 W/m² | - |
| 1777847155 | 15° C | 67% | 1009.5 hPa | 0 mm | - | 551 W/m² | - |
| 1777846852 | 14.44° C | 69% | 1009.3 hPa | 0 mm | - | 573 W/m² | - |
* Rain latest hour (hover to see other rain measurements)
** Current wind speed in m/s (hover to see current wind gust speed)